Location: Beekmeers
(50.8953°N, 3.6968°E)
Time: 13:48:39
(UTC+00:00)

TRACE - Visible Passes

Search period start: 03 October 2024 00:00
Search period end: 13 October 2024 00:00
Orbit: 435 x 454 km, 97.4° (Epoch: 02 October)

Date Brightness Start Highest point End Pass type
(mag) Time Alt. Az. Time Alt. Az. Time Alt. Az.
03 Oct 5.4 18:06:58 10° NE 18:09:48 25° E 18:12:36 10° SSE visible
03 Oct 6.8 19:39:37 10° N 19:42:23 24° WNW 19:45:07 10° WSW visible
04 Oct 7.3 04:42:20 10° ESE 04:44:53 21° ENE 04:47:27 10° NNE visible
04 Oct 4.7 19:02:23 10° N 19:05:41 65° WNW 19:08:57 10° SSW visible
05 Oct 4.7 18:25:31 10° NNE 18:28:42 41° E 18:31:51 10° S visible
05 Oct 7.4 19:58:54 10° NNW 20:01:02 16° WNW 20:03:10 10° WSW visible
06 Oct 6.5 05:00:30 10° SE 05:03:30 31° ENE 05:06:31 10° N visible
06 Oct 6.0 17:49:16 10° NE 17:51:25 16° E 17:53:34 10° SE visible
06 Oct 5.8 19:21:05 10° N 19:24:13 38° WNW 19:27:20 10° SW visible
07 Oct 7.7 04:24:56 10° E 04:26:40 14° ENE 04:28:25 10° NNE visible
07 Oct 4.2 18:43:47 10° NNE 18:47:06 72° ESE 18:50:25 10° S visible
07 Oct 7.9 20:18:16 10° NW 20:19:12 11° WNW 20:20:09 10° WNW visible
08 Oct 5.4 05:18:27 10° SSE 05:21:42 50° ENE 05:24:57 10° N visible
08 Oct 5.4 18:06:53 10° NE 18:09:42 25° E 18:12:30 10° SSE visible
08 Oct 6.7 19:39:28 10° N 19:42:15 25° WNW 19:45:01 10° WSW visible
09 Oct 7.3 04:42:03 10° ESE 04:44:34 20° ENE 04:47:04 10° NNE visible
09 Oct 4.6 19:01:42 10° N 19:05:01 68° WNW 19:08:19 10° SSW visible
10 Oct 4.7 18:24:19 10° NNE 18:27:29 39° E 18:30:37 10° S visible
10 Oct 7.3 19:57:35 10° NNW 19:59:48 17° WNW 20:02:02 10° WSW visible
11 Oct 6.6 04:59:06 10° SE 05:02:03 29° ENE 05:05:00 10° N visible
11 Oct 6.0 17:47:36 10° NE 17:49:38 15° E 17:51:41 10° SE visible
11 Oct 5.6 19:19:16 10° N 19:22:26 41° WNW 19:25:35 10° SW visible
12 Oct 7.7 04:23:09 10° E 04:24:42 13° ENE 04:26:15 10° NNE visible
12 Oct 4.2 18:41:27 10° NNE 18:44:46 65° ESE 18:48:04 10° S visible
12 Oct 7.8 20:15:37 10° NW 20:16:52 12° WNW 20:18:08 10° W visible
